Погода в Шереметьеве

Россия / Рязанская область     53°34′19″N   40°05′06″E
темп.,
°C
ветер,
м/с
пор.,
м/с
влажн.,
%
обл.,
%
осадки,
мм/ч
давл.,
гПа
погр.,
м
10 апреля, сб
сб1000:00+3с116349 0.0 102710
03:00+2св12683 0.0 102810
06:00+1св22725 0.0 102813
09:00+6в23562 0.0 1028325
12:00+8св22421 0.0 10271255
15:00+10с22370 0.0 10261399
18:00+9с23440 0.0 1026153
21:00+6ссз33580 0.0 102632
11 апреля, вс
вс1100:00+4с22630 0.0 102721
03:00+3с22654 0.0 102821
06:00+2с3366100 0.0 102928
09:00+6св245697 0.0 1030218
12:00+10ссв4541100 0.0 1030933
15:00+12св5637100 0.0 10301080
18:00+10св4749100 0.0 1030242
21:00+7св41062100 0.0 1030211
12 апреля, пн
пн1200:00+6св41068100 0.0 1030242
03:00+6св51073100 0.0 1030292
06:00+5св41090100 0.0 1029280
09:00+8всв5987100 0.0 1029348
12:00+13в5769100 0.0 1028516
15:00+17вюв5752100 0.0 1026835
18:00+16в4861100 0.0 1025170
21:00+12вюв4126899 0.0 1026201
13 апреля, вт
вт1300:00+10юв4137165 0.0 1026218
03:00+9юв4107813 0.0 1026154
06:00+7юв4107520 0.0 1026153
09:00+12юв5955100 0.0 1026311
12:00+17ююв5841100 0.0 1025793
15:00+18ююв5735100 0.0 10241208
18:00+17юв364795 0.0 1023124
21:00+13юв4115819 0.0 1023198
14 апреля, ср
ср1400:00+12юв5126447 0.0 1023235
03:00+10юв51268100 0.0 1022231
06:00+9юв41171100 0.0 1022200
09:00+13ююв61151100 0.0 1022413
12:00+18ююв7103233 0.0 10201079
15:00+20ююв7830100 0.0 10191878
18:00+17ююв4737100 0.0 1019193
21:00+13юв4105430 0.0 1019169